TimePST,TemperatureF,Dew PointF,Humidity,Sea Level PressureIn,VisibilityMPH,Wind Direction,Wind SpeedMPH,Gust SpeedMPH,PrecipitationIn,Events,Conditions,WindDirDegrees,DateUTC
12:55 AM,37.0,33.1,86,30.22,10.0,ESE,3.5,-,N/A,,Clear,110,2013-11-26 08:55:00
1:55 AM,35.1,32.0,89,30.21,10.0,East,5.8,-,N/A,,Clear,90,2013-11-26 09:55:00
2:55 AM,36.0,30.9,82,30.21,10.0,ESE,3.5,-,N/A,,Clear,120,2013-11-26 10:55:00
3:55 AM,36.0,32.0,86,30.20,10.0,ESE,4.6,-,N/A,,Clear,110,2013-11-26 11:55:00
4:55 AM,36.0,30.9,82,30.19,10.0,East,4.6,-,N/A,,Clear,100,2013-11-26 12:55:00
5:55 AM,37.9,30.9,76,30.17,10.0,East,8.1,-,N/A,,Clear,100,2013-11-26 13:55:00
6:55 AM,37.9,32.0,79,30.18,10.0,SE,5.8,-,N/A,,Clear,130,2013-11-26 14:55:00
7:55 AM,35.1,30.9,85,30.18,9.0,ESE,4.6,-,N/A,,Clear,120,2013-11-26 15:55:00
8:55 AM,37.9,33.1,83,30.18,9.0,ESE,3.5,-,N/A,,Clear,120,2013-11-26 16:55:00
9:55 AM,41.0,34.0,76,30.17,10.0,ESE,6.9,-,N/A,,Clear,110,2013-11-26 17:55:00
10:55 AM,48.0,35.1,61,30.16,10.0,ENE,5.8,-,N/A,,Partly Cloudy,70,2013-11-26 18:55:00
11:55 AM,50.0,35.1,57,30.14,10.0,NNE,3.5,-,N/A,,Overcast,30,2013-11-26 19:55:00
12:55 PM,51.1,37.0,59,30.13,10.0,NE,3.5,-,0.00,Rain,Light Rain,50,2013-11-26 20:55:00
1:55 PM,50.0,39.9,68,30.12,10.0,NE,5.8,-,0.00,,Overcast,40,2013-11-26 21:55:00
2:03 PM,48.9,39.9,71,30.12,10.0,NNE,4.6,-,N/A,,Overcast,30,2013-11-26 22:03:00
2:17 PM,50.0,41.0,71,30.12,10.0,NE,4.6,-,N/A,,Overcast,50,2013-11-26 22:17:00
2:55 PM,50.0,41.0,71,30.11,10.0,ENE,4.6,-,N/A,,Overcast,70,2013-11-26 22:55:00
3:55 PM,50.0,39.0,66,30.10,10.0,ESE,3.5,-,N/A,,Overcast,110,2013-11-26 23:55:00
4:55 PM,48.9,39.0,69,30.09,10.0,ESE,5.8,-,N/A,,Overcast,110,2013-11-27 00:55:00
5:55 PM,48.0,39.0,71,30.09,10.0,Calm,Calm,-,0.00,,Overcast,0,2013-11-27 01:55:00
6:55 PM,46.9,37.9,71,30.09,10.0,East,6.9,-,0.00,,Overcast,90,2013-11-27 02:55:00
7:55 PM,46.9,37.0,68,30.09,10.0,East,6.9,-,N/A,,Overcast,90,2013-11-27 03:55:00
8:55 PM,46.0,39.9,79,30.08,10.0,ESE,4.6,-,0.00,,Overcast,120,2013-11-27 04:55:00
9:55 PM,46.9,41.0,80,30.07,10.0,East,8.1,-,N/A,,Overcast,100,2013-11-27 05:55:00
10:55 PM,46.0,42.1,86,30.07,6.0,ESE,4.6,-,0.00,Rain,Light Rain,110,2013-11-27 06:55:00
11:55 PM,46.0,43.0,89,30.06,9.0,SW,3.5,-,0.00,,Overcast,230,2013-11-27 07:55:00